Content
SEND FEEDBACK

Daily
Averages
Monthly
Summary
United States of America

NEW YORK - CENTRAL PARK, NEW YORK


Home > North America > United States > New York
Elevation: 4 meters     Latitude: 40 47N     Longitude: 073 58W

WEATHER
 
SELECT A DAY
Number of Records: 148,086;   Date Range: 11/1/95 - 7/26/14
 
SHARE

PRINT THIS DATA

[ ← Previous Day ]
WEATHER ALMANAC - 21 JANUARY, 2013
[ Next Day → ]
[ °F ]   °C
Weather ElementAverageHighLow
Temperature-2.4 °C0 °C (12:51 pm) (8:00 pm)
Dewpoint-12.2 °C-8.9 °C (8:51 pm) (7:00 pm)
Humidity46.3 %61 % (11:51 pm)38 % (2:51 am)
Barometer972.9 hPa1019 hPa (8:51 am) (7:00 pm)
Wind Speed8.2 km/h16.7 km/h (4:51 am)
Wind Gust29.6 km/h (10:51 pm)
Weather ElementAverage
Visibility16.1 km
Wind DirectionESE (122.9 °)

Weather ElementTotal
Precipitation---
Heating Degree Days27.2 (Base 18.3)
Averaged from 24 records on 21 January, 2013
WEATHER CONDITIONS BREAKOUT
WIND DIRECTION BREAKOUT
WEATHER BY HOUR - 21 JANUARY, 2013
[ °F ]   °C
Local TimeTemperatureDewpointHumidityBarometerVisibilityWind DirectionWind SpeedGust SpeedPrecipitationEventsConditions
1:51 AM-2.2 °C-13.9 °C41 %1017.9 hPa16.1 kmVariable9.3 km/hClear
2:51 AM-2.2 °C-15 °C38 %1018.3 hPa16.1 kmVariable9.3 km/hClear
3:51 AM-2.8 °C-14.4 °C41 %1018.3 hPa16.1 kmWest (280°)14.8 km/hClear
4:51 AM-2.8 °C-13.9 °C43 %1018.3 hPa16.1 kmWest (280°)16.7 km/hClear
5:51 AM-2.8 °C-13.9 °C43 %1018.6 hPa16.1 kmWest (270°)13 km/hClear
6:51 AM-2.8 °C-13.3 °C45 %1018.6 hPa16.1 kmVariable7.4 km/hClear
7:51 AM-3.3 °C-13.9 °C44 %1018.6 hPa16.1 kmWNW (290°)11.1 km/hClear
8:51 AM-2.8 °C-13.3 °C45 %1019 hPa16.1 kmVariable7.4 km/hOvercast
9:51 AM-2.2 °C-13.3 °C43 %1019 hPa16.1 kmVariable5.6 km/hOvercast
10:51 AM-1.1 °C-13.3 °C40 %1017.9 hPa16.1 kmCalmOvercast
11:51 AM-1.1 °C-12.8 °C41 %1016.3 hPa16.1 kmCalmOvercast
12:51 PM0 °C-12.2 °C40 %1014.9 hPa16.1 kmCalmOvercast
1:51 PM-0.6 °C-12.2 °C42 %1014.6 hPa16.1 kmVariable5.6 km/hOvercast
2:51 PM-0.6 °C-12.2 °C42 %1013.9 hPa16.1 kmSouth (190°)7.4 km/hOvercast
3:51 PM-1.1 °C-11.7 °C45 %1012.5 hPa16.1 kmWSW (250°)13 km/hOvercast
4:51 PM-1.1 °C-10.6 °C49 %1012.2 hPa16.1 kmCalmOvercast
5:51 PM-0.6 °C-10 °C50 %1012.2 hPa16.1 kmWSW (250°)9.3 km/hOvercast
6:51 PM-0.6 °C-10 °C50 %1011.5 hPa16.1 kmWest (260°)9.3 km/hOvercast
7:51 PM-1.1 °C-10.6 °C49 %1011.9 hPa16.1 kmVariable9.3 km/hOvercast
8:00 PM-17.8 °C-17.8 °CNorth
8:51 PM-1.7 °C-8.9 °C58 %1011.2 hPa16.1 kmNorthOvercast
9:51 PM-1.7 °C-8.9 °C58 %1010.8 hPa16.1 kmWNW (300°)9.3 km/hOvercast
10:51 PM-1.7 °C-8.9 °C58 %1010.5 hPa16.1 kmWNW (290°)11.1 km/h29.6 km/hMostly Cloudy
11:51 PM-2.2 °C-8.9 °C61 %1010.2 hPa16.1 kmWNW (290°)11.1 km/hClear
Hourly data recorded from KNYC, located 0 kilometers away from New York - Central Park, New York







STORIES FROM OUR PARTNERS